TimeCST,TemperatureF,Dew PointF,Humidity,Sea Level PressureIn,VisibilityMPH,Wind Direction,Wind SpeedMPH,Gust SpeedMPH,PrecipitationIn,Events,Conditions,WindDirDegrees,DateUTC
12:53 AM,45.0,32.0,60,29.74,10.0,SSE,12.7,-,N/A,,Clear,160,2013-03-04 06:53:00
1:53 AM,46.0,32.0,58,29.71,10.0,SSE,11.5,-,N/A,,Clear,160,2013-03-04 07:53:00
2:53 AM,46.9,33.1,59,29.67,10.0,SSE,10.4,-,N/A,,Clear,160,2013-03-04 08:53:00
3:53 AM,48.9,34.0,56,29.65,10.0,South,13.8,-,N/A,,Clear,170,2013-03-04 09:53:00
4:53 AM,45.0,34.0,65,29.67,10.0,SSE,8.1,-,N/A,,Clear,160,2013-03-04 10:53:00
5:53 AM,48.0,35.1,61,29.66,10.0,South,13.8,-,N/A,,Clear,170,2013-03-04 11:53:00
6:53 AM,48.0,35.1,61,29.65,10.0,South,15.0,-,N/A,,Clear,170,2013-03-04 12:53:00
7:53 AM,46.9,37.0,68,29.66,10.0,SSE,10.4,-,N/A,,Clear,160,2013-03-04 13:53:00
8:53 AM,52.0,37.9,59,29.67,10.0,South,11.5,-,N/A,,Clear,170,2013-03-04 14:53:00
9:53 AM,55.9,39.9,55,29.66,10.0,South,16.1,-,N/A,,Clear,180,2013-03-04 15:53:00
10:53 AM,59.0,41.0,51,29.64,10.0,South,16.1,24.2,N/A,,Clear,180,2013-03-04 16:53:00
11:53 AM,60.1,42.1,51,29.64,10.0,South,15.0,18.4,N/A,,Clear,190,2013-03-04 17:53:00
12:53 PM,62.1,43.0,50,29.60,10.0,South,10.4,18.4,N/A,,Clear,190,2013-03-04 18:53:00
1:53 PM,63.0,43.0,48,29.59,10.0,SSW,10.4,20.7,N/A,,Clear,210,2013-03-04 19:53:00
2:53 PM,64.0,44.1,48,29.60,10.0,SSW,9.2,-,N/A,,Mostly Cloudy,200,2013-03-04 20:53:00
3:53 PM,62.1,45.0,53,29.62,10.0,SSE,8.1,-,N/A,,Overcast,160,2013-03-04 21:53:00
4:53 PM,61.0,46.0,58,29.64,10.0,SSE,10.4,-,N/A,,Overcast,150,2013-03-04 22:53:00
5:53 PM,57.0,46.0,67,29.65,10.0,SSE,5.8,-,N/A,,Partly Cloudy,160,2013-03-04 23:53:00
6:53 PM,54.0,45.0,72,29.68,10.0,Calm,Calm,-,N/A,,Clear,0,2013-03-05 00:53:00
7:53 PM,50.0,44.1,80,29.69,10.0,Calm,Calm,-,N/A,,Clear,0,2013-03-05 01:53:00
8:53 PM,52.0,45.0,77,29.71,10.0,SSE,3.5,-,N/A,,Clear,160,2013-03-05 02:53:00
9:53 PM,48.0,44.1,86,29.74,10.0,NW,11.5,18.4,N/A,,Clear,310,2013-03-05 03:53:00
10:53 PM,46.0,39.0,76,29.79,10.0,NNW,20.7,25.3,N/A,,Clear,340,2013-03-05 04:53:00
11:53 PM,42.1,34.0,73,29.85,10.0,North,18.4,-,N/A,,Clear,350,2013-03-05 05:53:00